Blacksburg, VA

6:49 AM EDT on September 21, 2017 (GMT -0400)
Virginia Tech

Weather History for KBCB - February, 2014

Change the Weather History Date:

Thursday, February 6, 2014

  Actual Average Record
Temperature  
Mean Temperature 28 °F 33 °F  
Max Temperature 33 °F 43 °F 67 °F (1991)
Min Temperature 22 °F 22 °F -5 °F (1996)
Degree Days  
Heating Degree Days 37 32  
Month to date heating degree days 168 195  
Since 1 July heating degree days 3472 3382  
Cooling Degree Days 0 0  
Month to date cooling degree days 0 0  
Year to date cooling degree days 0 0  
Moisture  
Dew Point 20 °F    
Average Humidity 75    
Maximum Humidity 88    
Minimum Humidity 61    
Precipitation  
Precipitation T in 0.10 in 1.70 in (2004)
Month to date precipitation 1.48 0.60  
Year to date precipitation 3.13 3.68  
Snow  
Snow T in - - ()
Month to date snowfall T  
Since 1 July snowfall 6.6  
Snow Depth 0.00 in    
Sea Level Pressure  
Sea Level Pressure 30.23 in    
Wind  
Wind Speed 8 mph (WNW)    
Max Wind Speed 17 mph    
Max Gust Speed 23 mph    
Visibility 10 miles    
Events Snow    
T = Trace of Precipitation, MM = Missing Value Source: NWS Daily Summary

Daily Weather History Graph

Daily Weather History Graph

Search for Another Location

Airport or City:

Trip Planner

Search our weather history database for the weather conditions in past years. The results will help you decide how hot, cold, wet, or windy it might be!

Date:

Astronomy

Feb. 06, 2014 Rise Set
Actual Time 7:20 AM EST 5:51 PM EST
Civil Twilight 6:52 AM EST 6:18 PM EST
Nautical Twilight 6:22 AM EST 6:49 PM EST
Astronomical Twilight 5:51 AM EST 7:20 PM EST
Moon 11:23 AM EST (2/6) 12:34 AM EST (2/6)
Length of Visible Light 11h 26m
Length of Day
10h 31m
Waxing Crescent, 49% of the Moon is Illuminated
Feb 6
Waxing Crescent
Feb 6
First Quarter
Feb 14
Full
Feb 22
Last Quarter
Mar 1
New

Hourly Weather History & Observations

Time (EST) Temp. Windchill Dew Point Humidity Pressure Visibility Wind Dir Wind Speed Gust Speed Precip Events Conditions
12:15 AM 28.4 °F 15.1 °F 21.2 °F 74% 30.13 in 10.0 mi NW 20.7 mph 27.6 mph N/A   Overcast
12:35 AM 26.6 °F 14.7 °F 21.2 °F 80% 30.12 in 10.0 mi WNW 15.0 mph 19.6 mph N/A   Overcast
12:55 AM 26.6 °F 15.7 °F 21.2 °F 80% 30.14 in 10.0 mi NW 12.7 mph 19.6 mph N/A   Overcast
1:15 AM 26.6 °F 17.5 °F 21.2 °F 80% 30.14 in 10.0 mi NW 9.2 mph 21.9 mph N/A   Mostly Cloudy
1:35 AM 26.6 °F 15.7 °F 21.2 °F 80% 30.15 in 10.0 mi WNW 12.7 mph 20.7 mph N/A   Overcast
1:55 AM 26.6 °F 15.7 °F 19.4 °F 74% 30.16 in 10.0 mi NW 12.7 mph 18.4 mph N/A   Overcast
2:15 AM 26.6 °F 13.4 °F 19.4 °F 74% 30.17 in 10.0 mi NNW 18.4 mph 24.2 mph N/A   Overcast
2:35 AM 26.6 °F 13.8 °F 19.4 °F 74% 30.19 in 10.0 mi NNW 17.3 mph 25.3 mph N/A   Overcast
2:55 AM 24.8 °F 14.0 °F 19.4 °F 80% 30.19 in 10.0 mi WNW 11.5 mph 23.0 mph N/A   Overcast
3:15 AM 24.8 °F 15.3 °F 19.4 °F 80% 30.19 in 10.0 mi NNW 9.2 mph 18.4 mph N/A Snow Light Snow
3:35 AM 24.8 °F 16.1 °F 21.2 °F 86% 30.19 in 7.0 mi NW 8.1 mph - N/A Snow Light Snow
3:55 AM 24.8 °F 16.9 °F 21.2 °F 86% 30.19 in 5.0 mi NW 6.9 mph - N/A Snow Light Snow
4:15 AM 24.8 °F 14.6 °F 21.2 °F 86% 30.20 in 7.0 mi NNW 10.4 mph - N/A Snow Light Snow
4:35 AM 24.8 °F 16.1 °F 21.2 °F 86% 30.20 in 4.0 mi NW 8.1 mph - N/A Snow Light Snow
4:55 AM 24.8 °F 16.1 °F 19.4 °F 80% 30.21 in 10.0 mi NW 8.1 mph - N/A Snow Light Snow
5:15 AM 24.8 °F 15.3 °F 19.4 °F 80% 30.20 in 10.0 mi NW 9.2 mph - N/A Snow Light Snow
5:35 AM 24.8 °F 14.6 °F 19.4 °F 80% 30.20 in 10.0 mi NW 10.4 mph - N/A Snow Light Snow
5:55 AM 24.8 °F 12.4 °F 19.4 °F 80% 30.21 in 10.0 mi NW 15.0 mph - N/A   Scattered Clouds
6:15 AM 24.8 °F 14.0 °F 17.6 °F 74% 30.21 in 10.0 mi NW 11.5 mph 19.6 mph N/A   Clear
6:35 AM 24.8 °F 15.3 °F 19.4 °F 80% 30.21 in 10.0 mi WNW 9.2 mph - N/A   Clear
6:55 AM 24.8 °F 15.3 °F 17.6 °F 74% 30.22 in 10.0 mi WNW 9.2 mph - N/A   Clear
7:15 AM 24.8 °F 20.5 °F 17.6 °F 74% 30.22 in 10.0 mi WNW 3.5 mph - N/A   Clear
7:35 AM 24.8 °F 20.5 °F 17.6 °F 74% 30.22 in 10.0 mi WNW 3.5 mph - N/A   Clear
7:55 AM 24.8 °F 20.5 °F 17.6 °F 74% 30.24 in 10.0 mi West 3.5 mph - N/A   Clear
8:15 AM 24.8 °F 19.1 °F 17.6 °F 74% 30.25 in 10.0 mi WNW 4.6 mph - N/A   Clear
8:35 AM 24.8 °F 19.1 °F 17.6 °F 74% 30.27 in 10.0 mi West 4.6 mph - N/A   Clear
8:55 AM 24.8 °F 17.9 °F 17.6 °F 74% 30.27 in 10.0 mi WNW 5.8 mph - N/A   Clear
9:15 AM 24.8 °F 16.9 °F 17.6 °F 74% 30.28 in 10.0 mi WNW 6.9 mph - N/A   Clear
9:35 AM 24.8 °F 16.9 °F 17.6 °F 74% 30.28 in 10.0 mi WNW 6.9 mph - N/A   Clear
9:55 AM 26.6 °F 20.0 °F 19.4 °F 74% 30.29 in 10.0 mi WNW 5.8 mph - N/A   Clear
10:15 AM 26.6 °F 21.2 °F 19.4 °F 74% 30.29 in 10.0 mi West 4.6 mph - N/A   Clear
10:35 AM 26.6 °F 22.6 °F 19.4 °F 74% 30.28 in 10.0 mi West 3.5 mph - N/A   Clear
10:55 AM 28.4 °F 22.2 °F 19.4 °F 69% 30.28 in 10.0 mi WNW 5.8 mph - N/A   Clear
11:15 AM 28.4 °F 24.6 °F 19.4 °F 69% 30.28 in 10.0 mi WNW 3.5 mph - N/A   Clear
11:35 AM 30.2 °F 24.3 °F 19.4 °F 64% 30.28 in 10.0 mi NW 5.8 mph - N/A   Clear
11:55 AM 30.2 °F 24.3 °F 21.2 °F 69% 30.26 in 10.0 mi SW 5.8 mph - N/A   Clear
12:15 PM 32.0 °F 26.4 °F 21.2 °F 64% 30.26 in 10.0 mi WSW 5.8 mph - N/A   Clear
12:35 PM 32.0 °F 25.6 °F 21.2 °F 64% 30.25 in 10.0 mi WNW 6.9 mph - N/A   Clear
12:55 PM 33.8 °F 27.0 °F 23.0 °F 65% 30.25 in 10.0 mi West 8.1 mph - N/A   Clear
1:15 PM 33.8 °F 27.0 °F 21.2 °F 60% 30.24 in 10.0 mi West 8.1 mph - N/A   Clear
1:35 PM 33.8 °F 27.0 °F 23.0 °F 65% 30.22 in 10.0 mi WNW 8.1 mph - N/A   Clear
1:55 PM 32.0 °F 27.5 °F 21.2 °F 64% 30.22 in 10.0 mi WNW 4.6 mph - N/A   Clear
2:15 PM 32.0 °F 26.4 °F 21.2 °F 64% 30.21 in 10.0 mi WNW 5.8 mph - N/A   Clear
2:35 PM 32.0 °F 26.4 °F 21.2 °F 64% 30.21 in 10.0 mi WNW 5.8 mph - N/A   Clear
2:55 PM 33.8 °F 27.7 °F 21.2 °F 60% 30.21 in 10.0 mi WNW 6.9 mph - N/A   Clear
3:15 PM 33.8 °F 28.6 °F 21.2 °F 60% 30.20 in 10.0 mi West 5.8 mph - N/A   Clear
3:35 PM 33.8 °F 28.6 °F 21.2 °F 60% 30.21 in 10.0 mi West 5.8 mph - N/A   Clear
3:55 PM 33.8 °F 27.7 °F 21.2 °F 60% 30.21 in 10.0 mi West 6.9 mph - N/A   Clear
4:15 PM 32.0 °F 27.5 °F 21.2 °F 64% 30.21 in 10.0 mi West 4.6 mph - N/A   Clear
4:35 PM 30.2 °F 23.4 °F 21.2 °F 69% 30.22 in 10.0 mi WNW 6.9 mph - N/A   Clear
4:55 PM 30.2 °F 24.3 °F 21.2 °F 69% 30.22 in 10.0 mi WNW 5.8 mph - N/A   Clear
5:15 PM 30.2 °F 25.4 °F 21.2 °F 69% 30.22 in 10.0 mi WNW 4.6 mph - N/A   Clear
5:35 PM 30.2 °F 25.4 °F 21.2 °F 69% 30.22 in 10.0 mi West 4.6 mph - N/A   Clear
5:55 PM 28.4 °F 23.3 °F 21.2 °F 74% 30.23 in 10.0 mi West 4.6 mph - N/A   Clear
6:15 PM 28.4 °F 23.3 °F 21.2 °F 74% 30.24 in 10.0 mi West 4.6 mph - N/A   Clear
6:35 PM 28.4 °F 22.2 °F 21.2 °F 74% 30.24 in 10.0 mi WNW 5.8 mph - N/A   Clear
6:55 PM 28.4 °F 21.2 °F 21.2 °F 74% 30.25 in 10.0 mi WNW 6.9 mph - N/A   Clear
7:15 PM 28.4 °F 20.4 °F 21.2 °F 74% 30.27 in 10.0 mi WNW 8.1 mph - N/A   Clear
7:35 PM 28.4 °F 23.3 °F 21.2 °F 74% 30.27 in 10.0 mi WNW 4.6 mph - N/A   Scattered Clouds
7:55 PM 28.4 °F 22.2 °F 21.2 °F 74% 30.29 in 10.0 mi WNW 5.8 mph - N/A   Mostly Cloudy
8:15 PM 28.4 °F 22.2 °F 21.2 °F 74% 30.28 in 10.0 mi WNW 5.8 mph - N/A   Mostly Cloudy
8:35 PM 28.4 °F 23.3 °F 21.2 °F 74% 30.27 in 10.0 mi WNW 4.6 mph - N/A   Overcast
8:55 PM 28.4 °F 24.6 °F 21.2 °F 74% 30.27 in 10.0 mi WNW 3.5 mph - N/A   Overcast
9:15 PM 28.4 °F 22.2 °F 21.2 °F 74% 30.26 in 10.0 mi NW 5.8 mph - N/A   Overcast
9:35 PM 28.4 °F 24.6 °F 21.2 °F 74% 30.26 in 10.0 mi West 3.5 mph - N/A   Overcast
9:55 PM 28.4 °F 23.3 °F 21.2 °F 74% 30.26 in 10.0 mi WNW 4.6 mph - N/A   Overcast
10:15 PM 28.4 °F 22.2 °F 21.2 °F 74% 30.26 in 10.0 mi WNW 5.8 mph - N/A   Mostly Cloudy
10:35 PM 28.4 °F 23.3 °F 21.2 °F 74% 30.25 in 10.0 mi WNW 4.6 mph - N/A   Overcast
10:55 PM 26.6 °F 22.6 °F 21.2 °F 80% 30.25 in 10.0 mi West 3.5 mph - N/A   Overcast
11:15 PM 26.6 °F 22.6 °F 21.2 °F 80% 30.24 in 10.0 mi West 3.5 mph - N/A   Mostly Cloudy
11:35 PM 26.6 °F 20.0 °F 21.2 °F 80% 30.24 in 10.0 mi West 5.8 mph - N/A   Scattered Clouds
11:55 PM 26.6 °F 21.2 °F 21.2 °F 80% 30.25 in 10.0 mi West 4.6 mph - N/A   Scattered Clouds